This is the latest recevied weather packets stored in our database for station/object K9ZOG. If no packets are shown the sender has not sent any weather packets the latest 10 day(s).
| Time | Temp. | Humidity | Pressure | Rain* | Wind** | Luminosity | Snow |
|---|---|---|---|---|---|---|---|
| 1777823654 | 11.11° C | 59% | 1012.1 hPa | 0 mm | - | 330 W/m² | - |
| 1777823352 | 11.11° C | 58% | 1012.3 hPa | 0 mm | - | 272 W/m² | - |
| 1777823053 | 11.11° C | 59% | 1012.4 hPa | 0 mm | - | 284 W/m² | - |
| 1777822754 | 11.11° C | 57% | 1012.3 hPa | 0 mm | - | 251 W/m² | - |
| 1777822453 | 11.11° C | 58% | 1012.4 hPa | 0 mm | - | 272 W/m² | - |
| 1777822153 | 11.11° C | 58% | 1012.4 hPa | 0 mm | - | 274 W/m² | - |
| 1777821852 | 11.11° C | 58% | 1012.3 hPa | 0 mm | - | 325 W/m² | - |
| 1777821552 | 11.11° C | 59% | 1012.4 hPa | 0 mm | - | 290 W/m² | - |
| 1777821252 | 11.11° C | 59% | 1012.4 hPa | 0 mm | - | 266 W/m² | - |
| 1777820953 | 11.11° C | 58% | 1012.5 hPa | 0 mm | - | 230 W/m² | - |
| 1777820653 | 11.11° C | 57% | 1012.4 hPa | 0 mm | - | 217 W/m² | - |
| 1777820355 | 10.56° C | 59% | 1012.3 hPa | 0 mm | - | 242 W/m² | - |
| 1777820055 | 10.56° C | 59% | 1012.2 hPa | 0 mm | - | 358 W/m² | - |
| 1777819753 | 10.56° C | 58% | 1012.2 hPa | 0 mm | - | 234 W/m² | - |
| 1777819453 | 10.56° C | 59% | 1012.1 hPa | 0 mm | - | 507 W/m² | - |
| 1777819152 | 10.56° C | 58% | 1012.1 hPa | 0 mm | - | 177 W/m² | - |
| 1777818853 | 10.56° C | 59% | 1012.2 hPa | 0 mm | - | 313 W/m² | - |
| 1777818552 | 10.56° C | 59% | 1012.2 hPa | 0 mm | - | 327 W/m² | - |
| 1777818255 | 10° C | 61% | 1012.3 hPa | 0 mm | - | 402 W/m² | - |
| 1777817952 | 10° C | 61% | 1012.2 hPa | 0 mm | - | 203 W/m² | - |
| 1777817655 | 10° C | 61% | 1012.4 hPa | 0 mm | - | 197 W/m² | - |
| 1777817353 | 10° C | 61% | 1012.4 hPa | 0 mm | - | 295 W/m² | - |
| 1777817056 | 9.44° C | 61% | 1012.5 hPa | 0 mm | - | 193 W/m² | - |
| 1777816754 | 9.44° C | 61% | 1012.5 hPa | 0 mm | - | 201 W/m² | - |
| 1777816452 | 9.44° C | 61% | 1012.5 hPa | 0 mm | - | 171 W/m² | - |
* Rain latest hour (hover to see other rain measurements)
** Current wind speed in m/s (hover to see current wind gust speed)